[[{"header":{"parameterUnit":"m.s-1","parameterCategory":1,"la1":30.2992,"la2":30.254,"lo1":-89.0895,"lo2":-89.0443,"dy":0.0025,"dx":0.0025,"nx":19,"ny":19,"refTime":"2026-04-12T09:00:00:Z","depth":0,"parameterNumber":2,"parameterNumberName":"U-component_of_WINDS"},"data":[0,0,0,-3.4337,-3.4338,-3.437,-3.437,-3.4435,-3.4435,0,0,0,0,0,0,0,0,0,0,0,-3.4342,-3.4343,-3.4337,-3.4338,-3.437,-3.437,-3.4434,-3.4435,0,0,0,0,0,0,0,0,0,0,0,-3.4342,-3.4343,-3.4344,-3.4339,-3.437,-3.437,-3.4434,-3.4402,0,0,0,0,0,0,0,0,0,0,-3.4367,-3.4385,-3.4343,-3.4344,-3.4339,-3.437,-3.437,-3.44,-3.4404,-3.443,0,-3.4458,0,-3.4448,-3.4441,-3.4442,0,0,0,-3.4327,-3.4382,-3.4378,-3.4344,-3.4339,-3.437,-3.4353,-3.4402,-3.4406,-3.4436,-3.4459,-3.446,-3.4449,-3.4442,-3.4442,-3.4632,-3.4634,0,0,-3.4326,-3.4356,-3.4375,-3.4382,-3.4379,-3.4352,-3.4354,-3.4404,-3.4431,-3.4459,-3.4461,-3.445,-3.4442,-3.4443,-3.4631,-3.4633,0,0,0,-3.4328,-3.4355,-3.4349,-3.438,-3.4384,-3.4353,-3.4355,-3.4429,-3.4424,-3.4462,-3.4451,-3.4443,-3.4444,-3.4629,-3.4631,-3.473,0,0,0,-3.4326,-3.4356,-3.4349,-3.4367,-3.4383,-3.4407,-3.4379,-3.4421,-3.4425,-3.4451,-3.4443,-3.4445,-3.4628,-3.463,-3.4724,-3.4771,0,0,0,-3.4335,-3.4357,-3.4367,-3.4369,-3.4384,-3.4405,-3.4403,-3.4421,-3.4419,-3.4442,-3.4445,-3.4627,-3.463,-3.4718,-3.4762,-3.483,0,0,0,-3.4353,-3.4454,-3.4369,-3.4477,-3.4384,-3.4466,-3.4402,-3.4462,-3.4493,-3.4443,-3.4628,-3.4631,-3.4716,-3.4757,-3.4824,-3.4892,-3.4923,0,0,-3.4497,-3.4472,-3.4533,-3.4458,-3.4563,-3.4459,-3.4578,-3.4578,-3.4552,-3.4607,-3.4611,-3.4726,-3.4761,-3.4829,-3.5088,-3.5113,0,0,0,-3.4589,-3.4633,-3.4654,-3.4686,-3.4688,-3.4694,-3.4672,-3.4672,-3.4717,-3.4587,-3.4767,-3.4788,-3.4826,-3.4857,-3.4878,-3.4909,-3.4647,-3.4647,-3.4646,-3.4835,-3.4797,-3.4896,-3.4862,-3.4893,-3.487,-3.4891,-3.4887,-3.4839,-3.4883,-3.4899,-3.5061,-3.5098,-3.5114,-3.5146,-3.4932,-3.4932,-3.4932,-3.4933,-3.5042,-3.5098,-3.5033,-3.5105,-3.5065,-3.5124,-3.5106,-3.5071,-3.512,-3.5045,-3.5077,-3.4998,-3.5142,-3.5169,-3.494,-3.4938,-3.4937,-3.4937,-3.4936,-3.5199,-3.5219,-3.5218,-3.5258,-3.5294,-3.5256,-3.5307,-3.5268,-3.5232,-3.5263,-3.5275,-3.5274,-3.5267,-3.5272,-3.5272,-3.5273,-3.5273,-3.5274,-3.5274,-3.5362,-3.5357,-3.5405,-3.5416,-3.5431,-3.5445,-3.5423,-3.5436,-3.5441,-3.5408,-3.5408,-3.5357,-3.5164,-3.5116,-3.5283,-3.5281,-3.528,-3.5279,-3.5279,-3.5586,-3.5529,-3.5603,-3.5618,-3.5627,-3.5665,-3.5615,-3.5645,-3.5651,-3.5677,-3.5619,-3.5482,-3.5454,-3.5437,-3.5397,-3.5627,-3.5627,-3.5627,-3.5627,-3.5718,-3.57,-3.5766,-3.5793,-3.5814,-3.5776,-3.586,-3.5844,-3.5818,-3.5819,-3.578,-3.5724,-3.5709,-3.569,-3.5667,-3.5629,-3.5912,-3.5913,-3.5913,-3.5853,-3.5835,-3.5915,-3.5889,-3.5893,-3.5898,-3.5976,-3.6009,-3.5968,-3.5924,-3.5819,-3.5807,-3.5716,-3.5688,-3.5642,-3.5607,-3.5537,0,0]},{"header":{"parameterUnit":"m.s-1","parameterCategory":1,"la1":30.2992,"la2":30.254,"lo1":-89.0895,"lo2":-89.0443,"dy":0.0025,"dx":0.0025,"nx":19,"ny":19,"refTime":"2026-04-12T09:00:00:Z","depth":0,"parameterNumber":3,"parameterNumberName":"V-component_of_WINDS"},"data":[0,0,0,1.8384,1.8384,1.8345,1.8345,1.8309,1.8309,0,0,0,0,0,0,0,0,0,0,0,1.8405,1.8406,1.8384,1.8383,1.8345,1.8345,1.8309,1.8309,0,0,0,0,0,0,0,0,0,0,0,1.8405,1.8406,1.8406,1.8383,1.8345,1.8345,1.8309,1.8333,0,0,0,0,0,0,0,0,0,0,1.8368,1.8398,1.8406,1.8406,1.8383,1.8345,1.8345,1.8334,1.8332,1.8333,0,1.8339,0,1.8324,1.8308,1.8308,0,0,0,1.8375,1.84,1.8381,1.8406,1.8383,1.8345,1.836,1.8332,1.833,1.833,1.8338,1.8336,1.8323,1.8308,1.8308,1.8349,1.8349,0,0,1.8377,1.8403,1.8383,1.838,1.8389,1.8361,1.8359,1.8331,1.834,1.8338,1.8335,1.8323,1.8307,1.8307,1.8348,1.8349,0,0,0,1.8389,1.8405,1.8386,1.8382,1.8374,1.836,1.8358,1.8341,1.8333,1.8335,1.8322,1.8307,1.8307,1.8348,1.8349,1.8403,0,0,0,1.839,1.8412,1.8388,1.8403,1.8375,1.8357,1.837,1.8335,1.8331,1.8322,1.8307,1.8307,1.8347,1.8348,1.84,1.8423,0,0,0,1.8404,1.8413,1.8412,1.8405,1.8389,1.8357,1.8347,1.8334,1.8324,1.8308,1.8307,1.8347,1.8348,1.8397,1.8418,1.8441,0,0,0,1.8427,1.8459,1.8413,1.8444,1.839,1.8392,1.8347,1.8347,1.8339,1.8307,1.8347,1.8349,1.8396,1.8416,1.8439,1.8464,1.8478,0,0,1.8481,1.8466,1.8482,1.844,1.8458,1.8396,1.842,1.8388,1.8361,1.8354,1.8355,1.8401,1.8418,1.8441,1.8547,1.8558,0,0,0,1.8508,1.852,1.8519,1.8515,1.8492,1.8475,1.8436,1.8425,1.8418,1.8364,1.8415,1.8424,1.8436,1.8447,1.8456,1.8465,1.8355,1.8355,1.8355,1.8621,1.8588,1.8612,1.8575,1.8571,1.8533,1.8526,1.8503,1.8469,1.8482,1.8479,1.8548,1.8561,1.8568,1.8577,1.8491,1.8491,1.8491,1.8491,1.8697,1.8708,1.8665,1.8673,1.8638,1.8643,1.8608,1.8584,1.8583,1.8547,1.8555,1.8517,1.8581,1.8587,1.8495,1.8494,1.8494,1.8494,1.8493,1.8765,1.8765,1.8752,1.8743,1.874,1.8701,1.8703,1.867,1.8639,1.8648,1.8641,1.864,1.8634,1.8648,1.8648,1.8648,1.8648,1.8648,1.8649,1.8841,1.8825,1.8832,1.8813,1.8806,1.8793,1.8757,1.8748,1.8731,1.8707,1.8706,1.8671,1.8595,1.8576,1.8652,1.8651,1.8651,1.8651,1.865,1.8928,1.8904,1.8914,1.8908,1.8883,1.8882,1.8842,1.8829,1.8817,1.8819,1.8783,1.8732,1.8713,1.8706,1.8689,1.8791,1.8791,1.8791,1.8791,1.8985,1.8974,1.8977,1.897,1.8958,1.8924,1.8935,1.8907,1.8874,1.8865,1.8846,1.8822,1.8816,1.8801,1.8791,1.8775,1.8896,1.8896,1.8896,1.9036,1.9022,1.9039,1.9008,1.8987,1.8969,1.8979,1.8971,1.8928,1.89,1.8857,1.8852,1.8814,1.8803,1.8771,1.8757,1.8727,0,0]}]]